START_TIME,STEP,MOV.,E45,t_acc.,ALAR?,t_acc.,A12,t_acc.,A24,t_acc.
1989-08-27T21:00:26.810 ,7,0,0.,4.8,0.,4.8,0.,4.8,0.,4.8
1989-08-27T21:00:31.610 ,7,0,0.,4.8,0.,4.8,0.,4.8,0.,4.8
1989-08-27T21:00:36.410 ,7,0,0.,4.8,0.,4.8,0.,4.8,0.,4.8
1989-08-27T21:00:41.210 ,7,0,0.,4.8,0.,4.8,0.,4.8,0.,4.8
1989-08-27T21:00:46.010 ,7,0,0.,4.8,0.,4.8,0.,4.8,0.,4.8
1989-08-27T21:00:50.810 ,6,0,0.,4.8,0.,4.8,0.,4.8,0.,4.8
1989-08-27T21:00:55.610 ,6,0,0.,4.8,0.,4.8,0.,4.8,0.,4.8
1989-08-27T21:01:00.410 ,6,0,0.,4.8,0.,4.8,0.,4.8,0.,4.8
1989-08-27T21:01:05.210 ,6,0,0.,4.8,0.,4.8,0.,4.8,0.,4.8
1989-08-27T21:01:10.010 ,6,0,0.,4.8,0.,4.8,0.,4.8,0.,4.8
1989-08-27T21:01:14.810 ,6,0,0.,4.8,0.,4.8,0.,4.8,0.,4.8
1989-08-27T21:01:19.610 ,6,0,0.,4.8,0.,4.8,0.,4.8,0.,4.8
1989-08-27T21:01:24.410 ,6,0,0.,4.8,0.,4.8,0.,4.8,0.,4.8
1989-08-27T21:01:29.210 ,6,0,0.,4.8,0.,4.8,0.,4.8,0.,4.8
1989-08-27T21:01:34.010 ,6,0,0.,4.8,0.,4.8,0.,4.8,0.,4.8
1989-08-27T21:01:38.810 ,5,0,0.,4.8,0.,4.8,0.,4.8,0.,4.8
1989-08-27T21:01:43.610 ,5,0,0.,4.8,0.,4.8,0.,4.8,0.,4.8
1989-08-27T21:01:48.410 ,5,0,0.,4.8,0.,4.8,0.,4.8,0.,4.8
1989-08-27T21:01:53.210 ,5,0,0.,4.8,0.,4.8,0.,4.8,0.,4.8
1989-08-27T21:01:58.010 ,5,0,0.,4.8,0.,4.8,0.,4.8,0.,4.8
1989-08-27T21:02:02.810 ,5,0,0.,4.8,0.,4.8,0.,4.8,0.,4.8
1989-08-27T21:02:07.610 ,5,0,0.,4.8,0.,4.8,0.,4.8,0.,4.8
1989-08-27T21:02:12.410 ,5,0,0.,4.8,0.,4.8,0.,4.8,0.,4.8
1989-08-27T21:02:17.210 ,5,0,0.,4.8,0.,4.8,0.,4.8,0.,4.8
1989-08-27T21:02:22.010 ,5,0,0.,4.8,0.,4.8,0.,4.8,0.,4.8
1989-08-27T21:02:26.810 ,4,0,0.,4.8,0.,4.8,0.,4.8,0.,4.8
1989-08-27T21:02:31.610 ,4,0,0.,4.8,0.,4.8,0.,4.8,0.,4.8
1989-08-27T21:02:36.410 ,4,0,0.,4.8,0.,4.8,0.,4.8,0.,4.8
1989-08-27T21:02:41.210 ,4,0,0.,4.8,0.,4.8,0.,4.8,0.,4.8
1989-08-27T21:02:46.010 ,4,0,0.,4.8,0.,4.8,0.,4.8,0.,4.8
1989-08-27T21:02:50.810 ,4,0,0.,4.8,0.,4.8,0.,4.8,0.,4.8
1989-08-27T21:02:55.610 ,4,0,0.,4.8,0.,4.8,0.,4.8,0.,4.8
1989-08-27T21:03:00.410 ,4,0,0.,4.8,0.,4.8,0.,4.8,0.,4.8
1989-08-27T21:03:05.210 ,4,0,0.,4.8,0.,4.8,0.,4.8,0.,4.8
1989-08-27T21:03:10.010 ,4,0,0.,4.8,0.,4.8,0.,4.8,0.,4.8
1989-08-27T21:03:14.810 ,3,0,0.,4.8,0.,4.8,0.,4.8,0.,4.8
1989-08-27T21:03:19.610 ,3,0,0.,4.8,0.,4.8,0.,4.8,0.,4.8
1989-08-27T21:03:24.410 ,3,0,0.,4.8,0.,4.8,0.,4.8,0.,4.8
1989-08-27T21:03:29.210 ,3,0,0.,4.8,0.,4.8,0.,4.8,0.,4.8
1989-08-27T21:03:34.010 ,3,0,0.,4.8,0.,4.8,0.,4.8,0.,4.8
1989-08-27T21:03:38.810 ,3,0,0.,4.8,0.,4.8,0.,4.8,0.,4.8
1989-08-27T21:03:43.610 ,3,0,0.,4.8,0.,4.8,0.,4.8,0.,4.8
1989-08-27T21:03:48.410 ,3,0,0.,4.8,0.,4.8,0.,4.8,0.,4.8
1989-08-27T21:03:53.210 ,3,0,0.,4.8,0.,4.8,0.,4.8,0.,4.8
1989-08-27T21:03:58.010 ,3,0,0.,4.8,0.,4.8,0.,4.8,0.,4.8
1989-08-27T21:04:02.810 ,2,0,0.,4.8,0.,4.8,0.,4.8,0.,4.8
1989-08-27T21:04:07.610 ,2,0,0.,4.8,0.,4.8,0.,4.8,0.,4.8
1989-08-27T21:04:12.410 ,2,0,0.,4.8,0.,4.8,0.,4.8,0.,4.8
1989-08-27T21:04:17.210 ,2,0,0.,4.8,0.,4.8,0.,4.8,0.,4.8
1989-08-27T21:04:22.010 ,2,0,0.,4.8,0.,4.8,0.,4.8,0.,4.8
1989-08-27T21:04:26.810 ,2,0,0.,4.8,0.,4.8,0.,4.8,0.,4.8
1989-08-27T21:04:31.610 ,2,0,0.,4.8,0.,4.8,0.,4.8,0.,4.8
1989-08-27T21:04:36.410 ,2,0,0.,4.8,0.,4.8,0.,4.8,0.,4.8
1989-08-27T21:04:41.210 ,2,0,0.,4.8,0.,4.8,0.,4.8,0.,4.8
1989-08-27T21:04:46.010 ,2,0,0.,4.8,0.,4.8,0.,4.8,0.,4.8
1989-08-27T21:04:50.810 ,1,0,0.,4.8,0.,4.8,0.,4.8,0.,4.8
1989-08-27T21:04:55.610 ,1,0,0.,4.8,0.,4.8,0.,4.8,0.,4.8
1989-08-27T21:05:00.410 ,1,0,0.,4.8,0.,4.8,0.,4.8,0.,4.8
1989-08-27T21:05:05.210 ,1,0,0.,4.8,0.,4.8,0.,4.8,0.,4.8
1989-08-27T21:05:10.010 ,1,0,0.,4.8,0.,4.8,0.,4.8,0.,4.8
1989-08-27T21:05:14.810 ,1,0,0.,4.8,0.,4.8,0.,4.8,0.,4.8
1989-08-27T21:05:19.610 ,1,0,0.,4.8,0.,4.8,0.,4.8,0.,4.8
1989-08-27T21:05:24.410 ,1,0,0.,4.8,0.,4.8,0.,4.8,0.,4.8
1989-08-27T21:05:29.210 ,1,0,0.,4.8,0.,4.8,0.,4.8,0.,4.8
1989-08-27T21:05:34.010 ,1,0,0.,4.8,0.,4.8,0.,4.8,0.,4.8
1989-08-27T21:05:38.810 ,0,0,0.,4.8,0.,4.8,0.,4.8,0.,4.8
1989-08-27T21:05:43.610 ,0,0,0.,4.8,0.,4.8,0.,4.8,0.,4.8
1989-08-27T21:05:48.410 ,0,0,0.,4.8,0.,4.8,0.,4.8,0.,4.8
1989-08-27T21:05:53.210 ,0,0,0.,4.8,0.,4.8,0.,4.8,0.,4.8
1989-08-27T21:05:58.010 ,0,0,0.,4.8,0.,4.8,0.,4.8,0.,4.8
1989-08-27T21:06:02.810 ,0,0,0.,4.8,0.,4.8,0.,4.8,0.,4.8
1989-08-27T21:06:07.610 ,0,0,0.,4.8,0.,4.8,0.,4.8,0.,4.8
1989-08-27T21:06:12.410 ,0,0,0.,4.8,0.,4.8,0.,4.8,0.,4.8
1989-08-27T21:06:17.210 ,0,0,0.,4.8,0.,4.8,0.,4.8,0.,4.8
1989-08-27T21:06:22.010 ,0,0,0.,4.8,0.,4.8,0.,4.8,0.,4.8
1989-08-27T21:06:26.810 ,0,0,0.,4.8,0.,4.8,0.,4.8,0.,4.8
1989-08-27T21:06:31.610 ,0,0,0.,4.8,0.,4.8,0.,4.8,0.,4.8
1989-08-27T21:06:36.410 ,0,0,0.,4.8,0.,4.8,0.,4.8,0.,4.8
1989-08-27T21:06:41.210 ,0,0,0.,4.8,0.,4.8,0.,4.8,0.,4.8
1989-08-27T21:06:46.010 ,0,0,0.,4.8,0.,4.8,0.,4.8,0.,4.8
1989-08-27T21:06:50.810 ,0,0,0.,4.8,0.,4.8,0.,4.8,0.,4.8
1989-08-27T21:06:55.610 ,0,0,0.,4.8,0.,4.8,0.,4.8,0.,4.8
1989-08-27T21:07:00.410 ,0,0,0.,4.8,0.,4.8,0.,4.8,0.,4.8
1989-08-27T21:07:05.210 ,0,0,0.,4.8,0.,4.8,0.,4.8,0.,4.8
1989-08-27T21:07:10.010 ,0,0,0.,4.8,0.,4.8,0.,4.8,0.,4.8
1989-08-27T21:07:14.810 ,1,0,0.,4.8,0.,4.8,0.,4.8,0.,4.8
1989-08-27T21:07:19.610 ,1,0,0.,4.8,0.,4.8,0.,4.8,0.,4.8
1989-08-27T21:07:24.410 ,1,0,0.,4.8,0.,4.8,0.,4.8,0.,4.8
1989-08-27T21:07:29.210 ,1,0,0.,4.8,0.,4.8,0.,4.8,0.,4.8
1989-08-27T21:07:34.010 ,1,0,0.,4.8,0.,4.8,0.,4.8,0.,4.8
1989-08-27T21:07:38.810 ,1,0,0.,4.8,0.,4.8,0.,4.8,0.,4.8
1989-08-27T21:07:43.610 ,1,0,0.,4.8,0.,4.8,0.,4.8,0.,4.8
1989-08-27T21:07:48.410 ,1,0,0.,4.8,0.,4.8,0.,4.8,0.,4.8
1989-08-27T21:07:53.210 ,1,0,0.,4.8,0.,4.8,0.,4.8,0.,4.8
1989-08-27T21:07:58.010 ,1,0,0.,4.8,0.,4.8,0.,4.8,0.,4.8
1989-08-27T21:08:02.810 ,2,0,0.,4.8,0.,4.8,0.,4.8,0.,4.8
1989-08-27T21:08:07.610 ,2,0,0.,4.8,0.,4.8,0.,4.8,0.,4.8
1989-08-27T21:08:12.410 ,2,0,0.,4.8,0.,4.8,0.,4.8,0.,4.8
1989-08-27T21:08:17.210 ,2,0,0.,4.8,0.,4.8,0.,4.8,0.,4.8
1989-08-27T21:08:22.010 ,2,0,0.,4.8,0.,4.8,0.,4.8,0.,4.8
1989-08-27T21:08:26.810 ,2,0,0.,4.8,0.,4.8,0.,4.8,0.,4.8
1989-08-27T21:08:31.610 ,2,0,0.,4.8,0.,4.8,0.,4.8,0.,4.8
1989-08-27T21:08:36.410 ,2,0,0.,4.8,0.,4.8,0.,4.8,0.,4.8
1989-08-27T21:08:41.210 ,2,0,0.,4.8,0.,4.8,0.,4.8,0.,4.8
1989-08-27T21:08:46.010 ,2,0,0.,4.8,0.,4.8,0.,4.8,0.,4.8
1989-08-27T21:08:50.810 ,3,0,0.,4.8,0.,4.8,0.,4.8,0.,4.8
1989-08-27T21:08:55.610 ,3,0,0.,4.8,0.,4.8,0.,4.8,0.,4.8
1989-08-27T21:09:00.410 ,3,0,0.,4.8,0.,4.8,0.,4.8,0.,4.8
1989-08-27T21:09:05.210 ,3,0,0.,4.8,0.,4.8,0.,4.8,0.,4.8
1989-08-27T21:09:10.010 ,3,0,0.,4.8,0.,4.8,0.,4.8,0.,4.8
1989-08-27T21:09:14.810 ,3,0,0.,4.8,0.,4.8,0.,4.8,0.,4.8
1989-08-27T21:09:19.610 ,3,0,0.,4.8,0.,4.8,0.,4.8,0.,4.8
1989-08-27T21:09:24.410 ,3,0,0.,4.8,0.,4.8,0.,4.8,0.,4.8
1989-08-27T21:09:29.210 ,3,0,0.,4.8,0.,4.8,0.,4.8,0.,4.8
1989-08-27T21:09:34.010 ,3,0,0.,4.8,0.,4.8,0.,4.8,0.,4.8
1989-08-27T21:09:38.810 ,4,0,0.,4.8,0.,4.8,0.,4.8,0.,4.8
1989-08-27T21:09:43.610 ,4,0,0.,4.8,0.,4.8,0.,4.8,0.,4.8
1989-08-27T21:09:48.410 ,4,0,0.,4.8,0.,4.8,0.,4.8,0.,4.8
1989-08-27T21:09:53.210 ,4,0,0.,4.8,0.,4.8,0.,4.8,0.,4.8
1989-08-27T21:09:58.010 ,4,0,0.,4.8,0.,4.8,0.,4.8,0.,4.8
1989-08-27T21:10:02.810 ,4,0,0.,4.8,0.,4.8,0.,4.8,0.,4.8
1989-08-27T21:10:07.610 ,4,0,0.,4.8,0.,4.8,0.,4.8,0.,4.8
1989-08-27T21:10:12.410 ,4,0,0.,4.8,0.,4.8,0.,4.8,0.,4.8
1989-08-27T21:10:17.210 ,4,0,0.,4.8,0.,4.8,0.,4.8,0.,4.8
1989-08-27T21:10:22.010 ,4,0,0.,4.8,0.,4.8,0.,4.8,0.,4.8
1989-08-27T21:10:26.810 ,5,0,0.,4.8,0.,4.8,0.,4.8,0.,4.8
1989-08-27T21:10:31.610 ,5,0,0.,4.8,0.,4.8,0.,4.8,0.,4.8
1989-08-27T21:10:36.410 ,5,0,0.,4.8,0.,4.8,0.,4.8,0.,4.8
1989-08-27T21:10:41.210 ,5,0,0.,4.8,0.,4.8,0.,4.8,0.,4.8
1989-08-27T21:10:46.010 ,5,0,0.,4.8,0.,4.8,0.,4.8,0.,4.8
1989-08-27T21:10:50.810 ,5,0,0.,4.8,0.,4.8,0.,4.8,0.,4.8
1989-08-27T21:10:55.610 ,5,0,0.,4.8,0.,4.8,0.,4.8,0.,4.8
1989-08-27T21:11:00.410 ,5,0,0.,4.8,0.,4.8,0.,4.8,0.,4.8
1989-08-27T21:11:05.210 ,5,0,0.,4.8,0.,4.8,0.,4.8,0.,4.8
1989-08-27T21:11:10.010 ,5,0,0.,4.8,0.,4.8,0.,4.8,0.,4.8
1989-08-27T21:11:14.810 ,6,0,0.,4.8,0.,4.8,0.,4.8,0.,4.8
1989-08-27T21:11:19.610 ,6,0,0.,4.8,0.,4.8,0.,4.8,0.,4.8
1989-08-27T21:11:24.410 ,6,0,0.,4.8,0.,4.8,0.,4.8,0.,4.8
1989-08-27T21:11:29.210 ,6,0,0.,4.8,0.,4.8,0.,4.8,0.,4.8
1989-08-27T21:11:34.010 ,6,0,0.,4.8,0.,4.8,0.,4.8,0.,4.8
1989-08-27T21:11:38.810 ,6,0,0.,4.8,0.,4.8,0.,4.8,0.,4.8
1989-08-27T21:11:43.610 ,6,0,0.,4.8,0.,4.8,0.,4.8,0.,4.8
1989-08-27T21:11:48.410 ,6,0,0.,4.8,0.,4.8,0.,4.8,0.,4.8
1989-08-27T21:11:53.210 ,6,0,0.,4.8,0.,4.8,0.,4.8,0.,4.8
1989-08-27T21:11:58.010 ,6,0,0.,4.8,0.,4.8,0.,4.8,0.,4.8
1989-08-27T21:12:02.810 ,7,0,0.,4.8,0.,4.8,0.,4.8,0.,4.8
1989-08-27T21:12:07.610 ,7,0,0.,4.8,0.,4.8,0.,4.8,0.,4.8
1989-08-27T21:12:12.410 ,7,0,0.,4.8,0.,4.8,0.,4.8,0.,4.8
1989-08-27T21:12:17.210 ,7,0,0.,4.8,0.,4.8,0.,4.8,0.,4.8
1989-08-27T21:12:22.010 ,7,0,0.,4.8,0.,4.8,0.,4.8,0.,4.8
1989-08-27T21:12:26.810 ,7,0,0.,4.8,0.,4.8,0.,4.8,0.,4.8
1989-08-27T21:12:31.610 ,7,0,0.,4.8,0.,4.8,0.,4.8,0.,4.8
1989-08-27T21:12:36.410 ,7,0,0.,4.8,0.,4.8,0.,4.8,0.,4.8
1989-08-27T21:12:41.210 ,7,0,0.,4.8,0.,4.8,0.,4.8,0.,4.8
1989-08-27T21:12:46.010 ,7,0,0.,4.8,0.,4.8,0.,4.8,0.,4.8
1989-08-27T21:12:50.810 ,7,0,0.,4.8,0.,4.8,0.,4.8,0.,4.8
1989-08-27T21:12:55.610 ,7,0,0.,4.8,0.,4.8,0.,4.8,0.,4.8
1989-08-27T21:13:00.410 ,7,0,0.,4.8,0.,4.8,0.,4.8,0.,4.8
1989-08-27T21:13:05.210 ,7,0,0.,4.8,0.,4.8,0.,4.8,0.,4.8
1989-08-27T21:13:10.010 ,7,0,0.,4.8,0.,4.8,0.,4.8,0.,4.8
1989-08-27T21:13:14.810 ,7,0,0.,4.8,0.,4.8,0.,4.8,0.,4.8
1989-08-27T21:13:19.610 ,7,0,0.,4.8,0.,4.8,0.,4.8,0.,4.8
1989-08-27T21:13:24.410 ,7,0,0.,4.8,0.,4.8,0.,4.8,0.,4.8
1989-08-27T21:13:29.210 ,7,0,0.,4.8,0.,4.8,0.,4.8,0.,4.8
1989-08-27T21:13:34.010 ,7,0,0.,4.8,0.,4.8,0.,4.8,0.,4.8
1989-08-27T21:13:38.810 ,6,0,0.,4.8,0.,4.8,0.,4.8,0.,4.8
1989-08-27T21:13:43.610 ,6,0,0.,4.8,0.,4.8,0.,4.8,0.,4.8
1989-08-27T21:13:48.410 ,6,0,0.,4.8,0.,4.8,0.,4.8,0.,4.8
1989-08-27T21:13:53.210 ,6,0,0.,4.8,0.,4.8,0.,4.8,0.,4.8
1989-08-27T21:13:58.010 ,6,0,0.,4.8,0.,4.8,0.,4.8,0.,4.8
1989-08-27T21:14:02.810 ,6,0,0.,4.8,0.,4.8,0.,4.8,0.,4.8
1989-08-27T21:14:07.610 ,6,0,0.,4.8,0.,4.8,0.,4.8,0.,4.8
1989-08-27T21:14:12.410 ,6,0,0.,4.8,0.,4.8,0.,4.8,0.,4.8
1989-08-27T21:14:17.210 ,6,0,0.,4.8,0.,4.8,0.,4.8,0.,4.8
1989-08-27T21:14:22.010 ,6,0,0.,4.8,0.,4.8,0.,4.8,0.,4.8
1989-08-27T21:14:26.810 ,5,0,0.,4.8,0.,4.8,0.,4.8,0.,4.8
1989-08-27T21:14:31.610 ,5,0,0.,4.8,0.,4.8,0.,4.8,0.,4.8
1989-08-27T21:14:36.410 ,5,0,0.,4.8,0.,4.8,0.,4.8,0.,4.8
1989-08-27T21:14:41.210 ,5,0,0.,4.8,0.,4.8,0.,4.8,0.,4.8
1989-08-27T21:14:46.010 ,5,0,0.,4.8,0.,4.8,0.,4.8,0.,4.8
1989-08-27T21:14:50.810 ,5,0,0.,4.8,0.,4.8,0.,4.8,0.,4.8
1989-08-27T21:14:55.610 ,5,0,0.,4.8,0.,4.8,0.,4.8,0.,4.8
1989-08-27T21:15:00.410 ,5,0,0.,4.8,0.,4.8,0.,4.8,0.,4.8
1989-08-27T21:15:05.210 ,5,0,0.,4.8,0.,4.8,0.,4.8,0.,4.8
1989-08-27T21:15:10.010 ,5,0,0.,4.8,0.,4.8,0.,4.8,0.,4.8
1989-08-27T21:15:14.810 ,4,0,0.,4.8,0.,4.8,0.,4.8,0.,4.8
1989-08-27T21:15:19.610 ,4,0,0.,4.8,0.,4.8,0.,4.8,0.,4.8
1989-08-27T21:15:24.410 ,4,0,0.,4.8,0.,4.8,0.,4.8,0.,4.8
1989-08-27T21:15:29.210 ,4,0,0.,4.8,0.,4.8,0.,4.8,0.,4.8
1989-08-27T21:15:34.010 ,4,0,0.,4.8,0.,4.8,0.,4.8,0.,4.8
1989-08-27T21:15:38.810 ,4,0,0.,4.8,0.,4.8,0.,4.8,0.,4.8
1989-08-27T21:15:43.610 ,4,0,0.,4.8,0.,4.8,0.,4.8,0.,4.8
1989-08-27T21:15:48.410 ,4,0,0.,4.8,0.,4.8,0.,4.8,0.,4.8
1989-08-27T21:15:53.210 ,4,0,0.,4.8,0.,4.8,0.,4.8,0.,4.8
1989-08-27T21:15:58.010 ,4,0,0.,4.8,0.,4.8,0.,4.8,0.,4.8
1989-08-27T21:16:02.810 ,3,0,0.,4.8,0.,4.8,0.,4.8,0.,4.8
1989-08-27T21:16:07.610 ,3,0,0.,4.8,0.,4.8,0.,4.8,0.,4.8
1989-08-27T21:16:12.410 ,3,0,0.,4.8,0.,4.8,0.,4.8,0.,4.8
1989-08-27T21:16:17.210 ,3,0,0.,4.8,0.,4.8,0.,4.8,0.,4.8
1989-08-27T21:16:22.010 ,3,0,0.,4.8,0.,4.8,0.,4.8,0.,4.8
1989-08-27T21:16:26.810 ,3,0,0.,4.8,0.,4.8,0.,4.8,0.,4.8
1989-08-27T21:16:31.610 ,3,0,0.,4.8,0.,4.8,0.,4.8,0.,4.8
1989-08-27T21:16:36.410 ,3,0,0.,4.8,0.,4.8,0.,4.8,0.,4.8
1989-08-27T21:16:41.210 ,3,0,0.,4.8,0.,4.8,0.,4.8,0.,4.8
1989-08-27T21:16:46.010 ,3,0,0.,4.8,0.,4.8,0.,4.8,0.,4.8
1989-08-27T21:16:50.810 ,2,0,0.,4.8,0.,4.8,0.,4.8,0.,4.8
1989-08-27T21:16:55.610 ,2,0,0.,4.8,0.,4.8,0.,4.8,0.,4.8
1989-08-27T21:17:00.410 ,2,0,0.,4.8,0.,4.8,0.,4.8,0.,4.8
1989-08-27T21:17:05.210 ,2,0,0.,4.8,0.,4.8,0.,4.8,0.,4.8
1989-08-27T21:17:10.010 ,2,0,0.,4.8,0.,4.8,0.,4.8,0.,4.8
1989-08-27T21:17:14.810 ,2,0,0.,4.8,0.,4.8,0.,4.8,0.,4.8
1989-08-27T21:17:19.610 ,2,0,0.,4.8,0.,4.8,0.,4.8,0.,4.8
1989-08-27T21:17:24.410 ,2,0,0.,4.8,0.,4.8,0.,4.8,0.,4.8
1989-08-27T21:17:29.210 ,2,0,0.,4.8,0.,4.8,0.,4.8,0.,4.8
1989-08-27T21:17:34.010 ,2,0,0.,4.8,0.,4.8,0.,4.8,0.,4.8
1989-08-27T21:17:38.810 ,1,0,0.,4.8,0.,4.8,0.,4.8,0.,4.8
1989-08-27T21:17:43.610 ,1,0,0.,4.8,0.,4.8,0.,4.8,0.,4.8
1989-08-27T21:17:48.410 ,1,0,0.,4.8,0.,4.8,0.,4.8,0.,4.8
1989-08-27T21:17:53.210 ,1,0,0.,4.8,0.,4.8,0.,4.8,0.,4.8
1989-08-27T21:17:58.010 ,1,0,0.,4.8,0.,4.8,0.,4.8,0.,4.8
1989-08-27T21:18:02.810 ,1,0,0.,4.8,0.,4.8,0.,4.8,0.,4.8
1989-08-27T21:18:07.610 ,1,0,0.,4.8,0.,4.8,0.,4.8,0.,4.8
1989-08-27T21:18:12.410 ,1,0,0.,4.8,0.,4.8,0.,4.8,0.,4.8
1989-08-27T21:18:17.210 ,1,0,0.,4.8,0.,4.8,0.,4.8,0.,4.8
1989-08-27T21:18:22.010 ,1,0,0.,4.8,0.,4.8,0.,4.8,0.,4.8
1989-08-27T21:18:26.810 ,0,0,0.,4.8,0.,4.8,0.,4.8,0.,4.8
1989-08-27T21:18:31.610 ,0,0,0.,4.8,0.,4.8,0.,4.8,0.,4.8
1989-08-27T21:18:36.410 ,0,0,0.,4.8,0.,4.8,0.,4.8,0.,4.8
1989-08-27T21:18:41.210 ,0,0,0.,4.8,0.,4.8,0.,4.8,0.,4.8
1989-08-27T21:18:46.010 ,0,0,0.,4.8,0.,4.8,0.,4.8,0.,4.8
1989-08-27T21:18:50.810 ,0,0,0.,4.8,0.,4.8,0.,4.8,0.,4.8
1989-08-27T21:18:55.610 ,0,0,0.,4.8,0.,4.8,0.,4.8,0.,4.8
1989-08-27T21:19:00.410 ,0,0,0.,4.8,0.,4.8,0.,4.8,0.,4.8
1989-08-27T21:19:05.210 ,0,0,0.,4.8,0.,4.8,0.,4.8,0.,4.8
1989-08-27T21:19:10.010 ,0,0,0.,4.8,0.,4.8,0.,4.8,0.,4.8
1989-08-27T21:19:14.810 ,0,0,0.,4.8,0.,4.8,0.,4.8,0.,4.8
1989-08-27T21:19:19.610 ,0,0,0.,4.8,0.,4.8,0.,4.8,0.,4.8
1989-08-27T21:19:24.410 ,0,0,0.,4.8,0.,4.8,0.,4.8,0.,4.8
1989-08-27T21:19:29.210 ,0,0,0.,4.8,0.,4.8,0.,4.8,0.,4.8
1989-08-27T21:19:34.010 ,0,0,0.,4.8,0.,4.8,0.,4.8,0.,4.8
1989-08-27T21:19:38.810 ,0,0,0.,4.8,0.,4.8,0.,4.8,0.,4.8
1989-08-27T21:19:43.610 ,0,0,0.,4.8,0.,4.8,0.,4.8,0.,4.8
1989-08-27T21:19:48.410 ,0,0,0.,4.8,0.,4.8,0.,4.8,0.,4.8
1989-08-27T21:19:53.210 ,0,0,0.,4.8,0.,4.8,0.,4.8,0.,4.8
1989-08-27T21:19:58.010 ,0,0,0.,4.8,0.,4.8,0.,4.8,0.,4.8
1989-08-27T21:20:02.810 ,1,0,0.,4.8,0.,4.8,0.,4.8,0.,4.8
1989-08-27T21:20:07.610 ,1,0,0.,4.8,0.,4.8,0.,4.8,0.,4.8
1989-08-27T21:20:12.410 ,1,0,0.,4.8,0.,4.8,0.,4.8,0.,4.8
1989-08-27T21:20:17.210 ,1,0,0.,4.8,0.,4.8,0.,4.8,0.,4.8
1989-08-27T21:20:22.010 ,1,0,0.,4.8,0.,4.8,0.,4.8,0.,4.8
1989-08-27T21:20:26.810 ,1,0,0.,4.8,0.,4.8,0.,4.8,0.,4.8
1989-08-27T21:20:31.610 ,1,0,0.,4.8,0.,4.8,0.,4.8,0.,4.8
1989-08-27T21:20:36.410 ,1,0,0.,4.8,0.,4.8,0.,4.8,0.,4.8
1989-08-27T21:20:41.210 ,1,0,0.,4.8,0.,4.8,0.,4.8,0.,4.8
1989-08-27T21:20:46.010 ,1,0,0.,4.8,0.,4.8,0.,4.8,0.,4.8
1989-08-27T21:20:50.810 ,2,0,0.,4.8,0.,4.8,0.,4.8,0.,4.8
1989-08-27T21:20:55.610 ,2,0,0.,4.8,0.,4.8,0.,4.8,0.,4.8
1989-08-27T21:21:00.410 ,2,0,0.,4.8,0.,4.8,0.,4.8,0.,4.8
1989-08-27T21:21:05.210 ,2,0,0.,4.8,0.,4.8,0.,4.8,0.,4.8
1989-08-27T21:21:10.010 ,2,0,0.,4.8,0.,4.8,0.,4.8,0.,4.8
1989-08-27T21:21:14.810 ,2,0,0.,4.8,0.,4.8,0.,4.8,0.,4.8
1989-08-27T21:21:19.610 ,2,0,0.,4.8,0.,4.8,0.,4.8,0.,4.8
1989-08-27T21:21:24.410 ,2,0,0.,4.8,0.,4.8,0.,4.8,0.,4.8
1989-08-27T21:21:29.210 ,2,0,0.,4.8,0.,4.8,0.,4.8,0.,4.8
1989-08-27T21:21:34.010 ,2,0,0.,4.8,0.,4.8,0.,4.8,0.,4.8
1989-08-27T21:21:38.810 ,3,0,0.,4.8,0.,4.8,0.,4.8,0.,4.8
1989-08-27T21:21:43.610 ,3,0,0.,4.8,0.,4.8,0.,4.8,0.,4.8
1989-08-27T21:21:48.410 ,3,0,0.,4.8,0.,4.8,0.,4.8,0.,4.8
1989-08-27T21:21:53.210 ,3,0,0.,4.8,0.,4.8,0.,4.8,0.,4.8
1989-08-27T21:21:58.010 ,3,0,0.,4.8,0.,4.8,0.,4.8,0.,4.8
1989-08-27T21:22:02.810 ,3,0,0.,4.8,0.,4.8,0.,4.8,0.,4.8
1989-08-27T21:22:07.610 ,3,0,0.,4.8,0.,4.8,0.,4.8,0.,4.8
1989-08-27T21:22:12.410 ,3,0,0.,4.8,0.,4.8,0.,4.8,0.,4.8
1989-08-27T21:22:17.210 ,3,0,0.,4.8,0.,4.8,0.,4.8,0.,4.8
1989-08-27T21:22:22.010 ,3,0,0.,4.8,0.,4.8,0.,4.8,0.,4.8
1989-08-27T21:22:26.810 ,4,0,0.,4.8,0.,4.8,0.,4.8,0.,4.8
1989-08-27T21:22:31.610 ,4,0,0.,4.8,0.,4.8,0.,4.8,0.,4.8
1989-08-27T21:22:36.410 ,4,0,0.,4.8,0.,4.8,0.,4.8,0.,4.8
1989-08-27T21:22:41.210 ,4,0,0.,4.8,0.,4.8,0.,4.8,0.,4.8
1989-08-27T21:22:46.010 ,4,0,0.,4.8,0.,4.8,0.,4.8,0.,4.8
1989-08-27T21:22:50.810 ,4,0,0.,4.8,0.,4.8,0.,4.8,0.,4.8
1989-08-27T21:22:55.610 ,4,0,0.,4.8,0.,4.8,0.,4.8,0.,4.8
1989-08-27T21:23:00.410 ,4,0,0.,4.8,0.,4.8,0.,4.8,0.,4.8
1989-08-27T21:23:05.210 ,4,0,0.,4.8,0.,4.8,0.,4.8,0.,4.8
1989-08-27T21:23:10.010 ,4,0,0.,4.8,0.,4.8,0.,4.8,0.,4.8
1989-08-27T21:23:14.810 ,5,0,0.,4.8,0.,4.8,0.,4.8,0.,4.8
1989-08-27T21:23:19.610 ,5,0,0.,4.8,0.,4.8,0.,4.8,0.,4.8
1989-08-27T21:23:24.410 ,5,0,0.,4.8,0.,4.8,0.,4.8,0.,4.8
1989-08-27T21:23:29.210 ,5,0,0.,4.8,0.,4.8,0.,4.8,0.,4.8
1989-08-27T21:23:34.010 ,5,0,0.,4.8,0.,4.8,0.,4.8,0.,4.8
1989-08-27T21:23:38.810 ,5,0,0.,4.8,0.,4.8,0.,4.8,0.,4.8
1989-08-27T21:23:43.610 ,5,0,0.,4.8,0.,4.8,0.,4.8,0.,4.8
1989-08-27T21:23:48.410 ,5,0,0.,4.8,0.,4.8,0.,4.8,0.,4.8
1989-08-27T21:23:53.210 ,5,0,0.,4.8,0.,4.8,0.,4.8,0.,4.8
1989-08-27T21:23:58.010 ,5,0,0.,4.8,0.,4.8,0.,4.8,0.,4.8
1989-08-27T21:24:02.810 ,6,0,0.,4.8,0.,4.8,0.,4.8,0.,4.8
1989-08-27T21:24:07.610 ,6,0,0.,4.8,0.,4.8,0.,4.8,0.,4.8
1989-08-27T21:24:12.410 ,6,0,0.,4.8,0.,4.8,0.,4.8,0.,4.8
1989-08-27T21:24:17.210 ,6,0,0.,4.8,0.,4.8,0.,4.8,0.,4.8
1989-08-27T21:24:22.010 ,6,0,0.,4.8,0.,4.8,0.,4.8,0.,4.8
1989-08-27T21:24:26.810 ,6,0,0.,4.8,0.,4.8,0.,4.8,0.,4.8
1989-08-27T21:24:31.610 ,6,0,0.,4.8,0.,4.8,0.,4.8,0.,4.8
1989-08-27T21:24:36.410 ,6,0,0.,4.8,0.,4.8,0.,4.8,0.,4.8
1989-08-27T21:24:41.210 ,6,0,0.,4.8,0.,4.8,0.,4.8,0.,4.8
1989-08-27T21:24:46.010 ,6,0,0.,4.8,0.,4.8,0.,4.8,0.,4.8
1989-08-27T21:24:50.810 ,7,0,0.,4.8,0.,4.8,0.,4.8,0.,4.8
1989-08-27T21:24:55.610 ,7,0,0.,4.8,0.,4.8,0.,4.8,0.,4.8
1989-08-27T21:25:00.410 ,7,0,0.,4.8,0.,4.8,0.,4.8,0.,4.8
1989-08-27T21:25:05.210 ,7,0,0.,4.8,0.,4.8,0.,4.8,0.,4.8
1989-08-27T21:25:10.010 ,7,0,0.,4.8,0.,4.8,0.,4.8,0.,4.8
1989-08-27T21:25:14.810 ,7,0,0.,4.8,0.,4.8,0.,4.8,0.,4.8
1989-08-27T21:25:19.610 ,7,0,0.,4.8,0.,4.8,0.,4.8,0.,4.8
1989-08-27T21:25:24.410 ,7,0,0.,4.8,0.,4.8,0.,4.8,0.,4.8
1989-08-27T21:25:29.210 ,7,0,0.,4.8,0.,4.8,0.,4.8,0.,4.8
1989-08-27T21:25:34.010 ,7,0,0.,4.8,0.,4.8,0.,4.8,0.,4.8
1989-08-27T21:25:38.810 ,7,0,0.,4.8,0.,4.8,0.,4.8,0.,4.8
1989-08-27T21:25:43.610 ,7,0,0.,4.8,0.,4.8,0.,4.8,0.,4.8
1989-08-27T21:25:48.410 ,7,0,0.,4.8,0.,4.8,0.,4.8,0.,4.8
1989-08-27T21:25:53.210 ,7,0,0.,4.8,0.,4.8,0.,4.8,0.,4.8
1989-08-27T21:25:58.010 ,7,0,0.,4.8,0.,4.8,0.,4.8,0.,4.8
1989-08-27T21:26:02.810 ,7,0,0.,4.8,0.,4.8,0.,4.8,0.,4.8
1989-08-27T21:26:07.610 ,7,0,0.,4.8,0.,4.8,0.,4.8,0.,4.8
1989-08-27T21:26:12.410 ,7,0,0.,4.8,0.,4.8,0.,4.8,0.,4.8
1989-08-27T21:26:17.210 ,7,0,0.,4.8,0.,4.8,0.,4.8,0.,4.8
1989-08-27T21:26:22.010 ,7,0,0.,4.8,0.,4.8,0.,4.8,0.,4.8
1989-08-27T21:26:26.810 ,6,0,0.,4.8,0.,4.8,0.,4.8,0.,4.8
1989-08-27T21:26:31.610 ,6,0,0.,4.8,0.,4.8,0.,4.8,0.,4.8
1989-08-27T21:26:36.410 ,6,0,0.,4.8,0.,4.8,0.,4.8,0.,4.8
1989-08-27T21:26:41.210 ,6,0,0.,4.8,0.,4.8,0.,4.8,0.,4.8
1989-08-27T21:26:46.010 ,6,0,0.,4.8,0.,4.8,0.,4.8,0.,4.8
1989-08-27T21:26:50.810 ,6,0,0.,4.8,0.,4.8,0.,4.8,0.,4.8
1989-08-27T21:26:55.610 ,6,0,0.,4.8,0.,4.8,0.,4.8,0.,4.8
1989-08-27T21:27:00.410 ,6,0,0.,4.8,0.,4.8,0.,4.8,0.,4.8
1989-08-27T21:27:05.210 ,6,0,0.,4.8,0.,4.8,0.,4.8,0.,4.8
1989-08-27T21:27:10.010 ,6,0,0.,4.8,0.,4.8,0.,4.8,0.,4.8
1989-08-27T21:27:14.810 ,5,0,0.,4.8,0.,4.8,0.,4.8,0.,4.8
1989-08-27T21:27:19.610 ,5,0,0.,4.8,0.,4.8,0.,4.8,0.,4.8
1989-08-27T21:27:24.410 ,5,0,0.,4.8,0.,4.8,0.,4.8,0.,4.8
1989-08-27T21:27:29.210 ,5,0,0.,4.8,0.,4.8,0.,4.8,0.,4.8
1989-08-27T21:27:34.010 ,5,0,0.,4.8,0.,4.8,0.,4.8,0.,4.8
1989-08-27T21:27:38.810 ,5,0,0.,4.8,0.,4.8,0.,4.8,0.,4.8
1989-08-27T21:27:43.610 ,5,0,0.,4.8,0.,4.8,0.,4.8,0.,4.8
1989-08-27T21:27:48.410 ,5,0,0.,4.8,0.,4.8,0.,4.8,0.,4.8
1989-08-27T21:27:53.210 ,5,0,0.,4.8,0.,4.8,0.,4.8,0.,4.8
1989-08-27T21:27:58.010 ,5,0,0.,4.8,0.,4.8,0.,4.8,0.,4.8
1989-08-27T21:28:02.810 ,4,0,0.,4.8,0.,4.8,0.,4.8,0.,4.8
1989-08-27T21:28:07.610 ,4,0,0.,4.8,0.,4.8,0.,4.8,0.,4.8
1989-08-27T21:28:12.410 ,4,0,0.,4.8,0.,4.8,0.,4.8,0.,4.8
1989-08-27T21:28:17.210 ,4,0,0.,4.8,0.,4.8,0.,4.8,0.,4.8
1989-08-27T21:28:22.010 ,4,0,0.,4.8,0.,4.8,0.,4.8,0.,4.8
1989-08-27T21:28:26.810 ,4,0,0.,4.8,0.,4.8,0.,4.8,0.,4.8
1989-08-27T21:28:31.610 ,4,0,0.,4.8,0.,4.8,0.,4.8,0.,4.8
1989-08-27T21:28:36.410 ,4,0,0.,4.8,0.,4.8,0.,4.8,0.,4.8
1989-08-27T21:28:41.210 ,4,0,0.,4.8,0.,4.8,0.,4.8,0.,4.8
1989-08-27T21:28:46.010 ,4,0,0.,4.8,0.,4.8,0.,4.8,0.,4.8
1989-08-27T21:28:50.810 ,3,0,0.,4.8,0.,4.8,0.,4.8,0.,4.8
1989-08-27T21:28:55.610 ,3,0,0.,4.8,0.,4.8,0.,4.8,0.,4.8
1989-08-27T21:29:00.410 ,3,0,0.,4.8,0.,4.8,0.,4.8,0.,4.8
1989-08-27T21:29:05.210 ,3,0,0.,4.8,0.,4.8,0.,4.8,0.,4.8
1989-08-27T21:29:10.010 ,3,0,0.,4.8,0.,4.8,0.,4.8,0.,4.8
1989-08-27T21:29:14.810 ,3,0,0.,4.8,0.,4.8,0.,4.8,0.,4.8
1989-08-27T21:29:19.610 ,3,0,0.,4.8,0.,4.8,0.,4.8,0.,4.8
1989-08-27T21:29:24.410 ,3,0,0.,4.8,0.,4.8,0.,4.8,0.,4.8
1989-08-27T21:29:29.210 ,3,0,0.,4.8,0.,4.8,0.,4.8,0.,4.8
1989-08-27T21:29:34.010 ,3,0,0.,4.8,0.,4.8,0.,4.8,0.,4.8
1989-08-27T21:29:38.810 ,2,0,0.,4.8,0.,4.8,0.,4.8,0.,4.8
1989-08-27T21:29:43.610 ,2,0,0.,4.8,0.,4.8,0.,4.8,0.,4.8
1989-08-27T21:29:48.410 ,2,0,0.,4.8,0.,4.8,0.,4.8,0.,4.8
1989-08-27T21:29:53.210 ,2,0,0.,4.8,0.,4.8,0.,4.8,0.,4.8
1989-08-27T21:29:58.010 ,2,0,0.,4.8,0.,4.8,0.,4.8,0.,4.8
1989-08-27T21:30:02.810 ,2,0,0.,4.8,0.,4.8,0.,4.8,0.,4.8
1989-08-27T21:30:07.610 ,2,0,0.,4.8,0.,4.8,0.,4.8,0.,4.8
1989-08-27T21:30:12.410 ,2,0,0.,4.8,0.,4.8,0.,4.8,0.,4.8
1989-08-27T21:30:17.210 ,2,0,0.,4.8,0.,4.8,0.,4.8,0.,4.8
1989-08-27T21:30:22.010 ,2,0,0.,4.8,0.,4.8,0.,4.8,0.,4.8
1989-08-27T21:30:26.810 ,1,0,0.,4.8,0.,4.8,0.,4.8,0.,4.8
1989-08-27T21:30:31.610 ,1,0,0.,4.8,0.,4.8,0.,4.8,0.,4.8
1989-08-27T21:30:36.410 ,1,0,0.,4.8,0.,4.8,0.,4.8,0.,4.8
1989-08-27T21:30:41.210 ,1,0,0.,4.8,0.,4.8,0.,4.8,0.,4.8
1989-08-27T21:30:46.010 ,1,0,0.,4.8,0.,4.8,0.,4.8,0.,4.8
1989-08-27T21:30:50.810 ,1,0,0.,4.8,0.,4.8,0.,4.8,0.,4.8
1989-08-27T21:30:55.610 ,1,0,0.,4.8,0.,4.8,0.,4.8,0.,4.8
1989-08-27T21:31:00.410 ,1,0,0.,4.8,0.,4.8,0.,4.8,0.,4.8
1989-08-27T21:31:05.210 ,1,0,0.,4.8,0.,4.8,0.,4.8,0.,4.8
1989-08-27T21:31:10.010 ,1,0,0.,4.8,0.,4.8,0.,4.8,0.,4.8
1989-08-27T21:31:14.810 ,0,0,0.,4.8,0.,4.8,0.,4.8,0.,4.8
1989-08-27T21:31:19.610 ,0,0,0.,4.8,0.,4.8,0.,4.8,0.,4.8
1989-08-27T21:31:24.410 ,0,0,0.,4.8,0.,4.8,0.,4.8,0.,4.8
1989-08-27T21:31:29.210 ,0,0,0.,4.8,0.,4.8,0.,4.8,0.,4.8
1989-08-27T21:31:34.010 ,0,0,0.,4.8,0.,4.8,0.,4.8,0.,4.8
1989-08-27T21:31:38.810 ,0,0,0.,4.8,0.,4.8,0.,4.8,0.,4.8
1989-08-27T21:31:43.610 ,0,0,0.,4.8,0.,4.8,0.,4.8,0.,4.8
1989-08-27T21:31:48.410 ,0,0,0.,4.8,0.,4.8,0.,4.8,0.,4.8
1989-08-27T21:31:53.210 ,0,0,0.,4.8,0.,4.8,0.,4.8,0.,4.8
1989-08-27T21:31:58.010 ,0,0,0.,4.8,0.,4.8,0.,4.8,0.,4.8
1989-08-27T21:32:02.810 ,0,0,0.,4.8,0.,4.8,0.,4.8,0.,4.8
1989-08-27T21:32:07.610 ,0,0,0.,4.8,0.,4.8,0.,4.8,0.,4.8
1989-08-27T21:32:12.410 ,0,0,0.,4.8,0.,4.8,0.,4.8,0.,4.8
1989-08-27T21:32:17.210 ,0,0,0.,4.8,0.,4.8,0.,4.8,0.,4.8
1989-08-27T21:32:22.010 ,0,0,0.,4.8,0.,4.8,0.,4.8,0.,4.8
1989-08-27T21:32:26.810 ,0,0,0.,4.8,0.,4.8,0.,4.8,0.,4.8
1989-08-27T21:32:31.610 ,0,0,0.,4.8,0.,4.8,0.,4.8,0.,4.8
1989-08-27T21:32:36.410 ,0,0,0.,4.8,0.,4.8,0.,4.8,0.,4.8
1989-08-27T21:32:41.210 ,0,0,0.,4.8,0.,4.8,0.,4.8,0.,4.8
1989-08-27T21:32:46.010 ,0,0,0.,4.8,0.,4.8,0.,4.8,0.,4.8
1989-08-27T21:32:50.810 ,1,0,0.,4.8,0.,4.8,0.,4.8,0.,4.8
1989-08-27T21:32:55.610 ,1,0,0.,4.8,0.,4.8,0.,4.8,0.,4.8
1989-08-27T21:33:00.410 ,1,0,0.,4.8,0.,4.8,0.,4.8,0.,4.8
1989-08-27T21:33:05.210 ,1,0,0.,4.8,0.,4.8,0.,4.8,0.,4.8
1989-08-27T21:33:10.010 ,1,0,0.,4.8,0.,4.8,0.,4.8,0.,4.8
1989-08-27T21:33:14.810 ,1,0,0.,4.8,0.,4.8,0.,4.8,0.,4.8
1989-08-27T21:33:19.610 ,1,0,0.,4.8,0.,4.8,0.,4.8,0.,4.8